[[{"header":{"parameterUnit":"m.s-1","parameterCategory":1,"la1":30.2991,"la2":30.254,"lo1":-89.0895,"lo2":-89.0444,"dy":0.0017,"dx":0.0017,"nx":28,"ny":28,"refTime":"2025-01-24T03:00:00:Z","depth":0,"parameterNumber":2,"parameterNumberName":"U-component_of_WINDS"},"data":[0,0,0,0,0,0,0,0,0,0,0,0,0,0,0,0,0,0,0,0,0,0,0,0,0,0,0,0,0,0,0,0,0,0,0,0,0,0,0,0,0,0,0,0,0,0,0,0,0,0,0,0,0,0,0,0,0,0,-2.7237,-2.7237,0,-2.727,-2.727,-2.727,-2.7217,-2.7215,-2.7214,-2.7212,-2.7249,-2.7251,-2.7254,0,0,0,0,0,0,0,0,0,0,0,0,0,-2.7128,-2.7131,-2.7236,-2.7237,-2.7237,-2.727,-2.727,-2.7271,-2.7218,-2.7215,-2.7213,-2.7211,-2.7248,-2.7251,-2.7254,0,0,0,0,0,0,0,0,0,0,0,0,0,-2.717,-2.7131,-2.7236,-2.7215,-2.7213,-2.727,-2.727,-2.7271,-2.7218,-2.7215,-2.7213,-2.721,-2.7247,-2.7251,-2.7254,-2.7335,0,0,-2.7267,-2.7269,0,0,0,0,0,0,0,0,-2.7168,-2.7174,-2.7217,-2.7216,-2.7215,-2.7236,-2.7245,-2.7292,-2.7219,-2.7216,-2.7212,-2.7209,-2.7247,-2.7251,-2.7263,-2.7336,-2.7338,-2.7267,-2.727,-2.7271,-2.7272,0,0,0,0,0,0,0,-2.7165,-2.7172,-2.725,-2.7218,-2.7216,-2.7204,-2.7207,-2.7254,-2.7247,-2.7216,-2.7212,-2.7217,-2.7246,-2.7259,-2.7264,-2.7338,-2.7267,-2.7271,-2.7273,-2.7275,-2.7477,-2.748,0,0,0,0,0,0,-2.7164,-2.717,-2.7249,-2.7251,-2.7184,-2.7208,-2.7211,-2.7232,-2.7246,-2.7245,-2.7219,-2.7214,-2.7254,-2.7259,-2.7265,-2.7358,-2.7271,-2.7275,-2.7277,-2.7474,-2.7477,-2.7481,0,0,0,0,0,0,-2.7162,-2.7172,-2.7247,-2.7209,-2.7218,-2.7213,-2.7237,-2.7234,-2.7248,-2.7248,-2.7247,-2.7235,-2.7252,-2.7259,-2.7317,-2.7358,-2.7277,-2.7281,-2.747,-2.7475,-2.7479,-2.7545,0,0,0,0,0,0,-2.7159,-2.7171,-2.7202,-2.721,-2.722,-2.7299,-2.7239,-2.7237,-2.7255,-2.7249,-2.7262,-2.7262,-2.725,-2.7311,-2.7321,-2.7362,-2.7284,-2.7467,-2.7472,-2.7478,-2.754,-2.7552,-2.7562,0,0,0,0,0,-2.7156,-2.722,-2.7203,-2.7213,-2.7258,-2.7301,-2.7307,-2.7291,-2.7258,-2.7289,-2.7288,-2.7261,-2.7352,-2.7318,-2.7328,-2.7371,-2.7464,-2.7471,-2.7477,-2.7535,-2.7549,-2.7562,0,0,0,0,0,0,-2.7217,-2.7221,-2.7202,-2.7271,-2.7286,-2.7292,-2.733,-2.7308,-2.7333,-2.7326,-2.7307,-2.7311,-2.7372,-2.7378,-2.7339,-2.7449,-2.7403,-2.7412,-2.7443,-2.7457,-2.7468,-2.7465,-2.7287,0,0,0,0,0,-2.7239,-2.7273,-2.7275,-2.7335,-2.7344,-2.7336,-2.7354,-2.7341,-2.7356,-2.7362,-2.7366,-2.7383,-2.7414,-2.7436,-2.7466,-2.754,-2.7542,-2.7575,-2.7586,-2.7596,-2.7603,-2.7642,-2.7656,-2.7502,-2.7502,-2.7502,0,0,-2.7284,-2.729,-2.7313,-2.7348,-2.7358,-2.7394,-2.7341,-2.7383,-2.7409,-2.7369,-2.7423,-2.7427,-2.7443,-2.7509,-2.7539,-2.7516,-2.7646,-2.7604,-2.7611,-2.7614,-2.765,-2.7664,-2.7677,-2.7507,-2.7506,-2.7505,0,0,-2.7384,-2.7393,-2.7443,-2.7454,-2.7469,-2.7463,-2.7475,-2.7484,-2.7485,-2.7538,-2.7508,-2.754,-2.7596,-2.7608,-2.7622,-2.7726,-2.7701,-2.7736,-2.7794,-2.7832,-2.7844,-2.7854,-2.789,-2.7903,-2.7744,-2.7744,-2.7744,0,-2.7438,-2.7491,-2.7472,-2.7515,-2.753,-2.7494,-2.7545,-2.7557,-2.7581,-2.7593,-2.7567,-2.7635,-2.7644,-2.7711,-2.7736,-2.7749,-2.7762,-2.7734,-2.7843,-2.7854,-2.7863,-2.7897,-2.7911,-2.7748,-2.7748,-2.7747,-2.7747,0,-2.7556,-2.7593,-2.7632,-2.7655,-2.7675,-2.7722,-2.771,-2.7733,-2.7718,-2.7715,-2.777,-2.7779,-2.7809,-2.7824,-2.781,-2.7889,-2.7874,-2.7846,-2.78,-2.7882,-2.7913,-2.7926,-2.7754,-2.7752,-2.7751,-2.775,0,0,-2.7696,-2.7707,-2.7722,-2.7731,-2.7744,-2.7773,-2.7818,-2.7846,-2.7865,-2.7883,-2.792,-2.7967,-2.794,-2.7956,-2.7943,-2.7976,-2.8056,-2.7944,-2.7944,-2.7963,-2.8142,-2.8162,-2.8177,-2.804,-2.8042,-2.8044,-2.814,0,-2.7795,-2.787,-2.7854,-2.7929,-2.7962,-2.7928,-2.7967,-2.7979,-2.7977,-2.8005,-2.8004,-2.8037,-2.8,-2.8009,-2.804,-2.8039,-2.8091,-2.8032,-2.8073,-2.8075,-2.8068,-2.8193,-2.8215,-2.8305,-2.8152,-2.8154,-2.8156,0,-2.792,-2.794,-2.8018,-2.8024,-2.8038,-2.8073,-2.8096,-2.8124,-2.8137,-2.8133,-2.815,-2.8131,-2.8175,-2.8128,-2.8188,-2.8148,-2.8164,-2.8166,-2.8169,-2.8172,-2.8119,-2.8198,-2.8334,-2.8346,-2.8175,-2.8173,-2.8172,0,-2.8012,-2.806,-2.8112,-2.8121,-2.8131,-2.8156,-2.8161,-2.8171,-2.8189,-2.821,-2.822,-2.8247,-2.8261,-2.8282,-2.827,-2.8237,-2.8332,-2.8284,-2.8329,-2.833,-2.835,-2.8349,-2.8489,-2.8363,-2.8362,-2.8362,-2.8362,0,-2.8123,-2.8171,-2.8153,-2.8185,-2.8238,-2.8219,-2.8272,-2.8274,-2.8283,-2.8315,-2.8287,-2.8318,-2.83,-2.8329,-2.832,-2.837,-2.8378,-2.8375,-2.8372,-2.8377,-2.8377,-2.8386,-2.8379,-2.8366,-2.8365,-2.8364,-2.8364,0,-2.8235,-2.8225,-2.8279,-2.8283,-2.8285,-2.8324,-2.8327,-2.8357,-2.8352,-2.8392,-2.8401,-2.8394,-2.8426,-2.8416,-2.8452,-2.8446,-2.8509,-2.8499,-2.8504,-2.8501,-2.8545,-2.8541,-2.8695,-2.8714,-2.8577,-2.8579,-2.858,0,-2.8305,-2.8341,-2.8349,-2.8367,-2.8374,-2.8405,-2.8421,-2.8404,-2.8423,-2.844,-2.8468,-2.8497,-2.852,-2.8574,-2.8572,-2.8599,-2.8588,-2.864,-2.8592,-2.8595,-2.8586,-2.8584,-2.8586,-2.8649,-2.8651,-2.8652,-2.8653,0,-2.8431,-2.8424,-2.8449,-2.8472,-2.8493,-2.8511,-2.8526,-2.8543,-2.8527,-2.855,-2.8582,-2.8599,-2.8634,-2.8664,-2.8688,-2.8693,-2.867,-2.8669,-2.868,-2.8685,-2.8685,-2.8684,-2.8529,-2.8665,-2.8664,-2.8663,-2.8662,-2.8662,-2.8524,-2.8553,-2.8562,-2.8591,-2.86,-2.8615,-2.8642,-2.864,-2.8667,-2.8693,-2.8682,-2.8718,-2.8729,-2.8759,-2.8768,-2.8796,-2.8776,-2.8793,-2.8797,-2.8801,-2.8806,-2.8682,-2.88,-2.88,-2.88,-2.88,-2.8799,0,-2.8646,-2.865,-2.8677,-2.8698,-2.872,-2.8696,-2.8711,-2.8732,-2.8764,-2.8776,-2.8798,-2.8834,-2.8862,-2.8863,-2.8889,-2.8911,-2.8901,-2.8919,-2.8916,-2.8917,-2.8823,-2.881,-2.8926,-2.8926,-2.8926,-2.8926,-2.8926,-2.8926,-2.8713,-2.8761,-2.8755,-2.8807,-2.8811,-2.8846,-2.8856,-2.8869,-2.8878,-2.892,-2.8942,-2.8942,-2.8949,-2.8975,-2.9,-2.8999,-2.9009,-2.903,-2.9025,-2.8937,-2.8924,-2.8912,-2.8899,-2.9033,-2.9033,-2.9117,-2.9118,-2.9118]},{"header":{"parameterUnit":"m.s-1","parameterCategory":1,"la1":30.2991,"la2":30.254,"lo1":-89.0895,"lo2":-89.0444,"dy":0.0017,"dx":0.0017,"nx":28,"ny":28,"refTime":"2025-01-24T03:00:00:Z","depth":0,"parameterNumber":3,"parameterNumberName":"V-component_of_WINDS"},"data":[0,0,0,0,0,0,0,0,0,0,0,0,0,0,0,0,0,0,0,0,0,0,0,0,0,0,0,0,0,0,0,0,0,0,0,0,0,0,0,0,0,0,0,0,0,0,0,0,0,0,0,0,0,0,0,0,0,0,-1.6906,-1.6906,0,-1.6865,-1.6865,-1.6864,-1.6867,-1.6867,-1.6868,-1.6869,-1.682,-1.6819,-1.6817,0,0,0,0,0,0,0,0,0,0,0,0,0,-1.698,-1.6979,-1.6906,-1.6906,-1.6905,-1.6865,-1.6865,-1.6864,-1.6867,-1.6867,-1.6868,-1.6869,-1.6821,-1.6819,-1.6817,0,0,0,0,0,0,0,0,0,0,0,0,0,-1.6944,-1.6978,-1.6906,-1.6902,-1.6901,-1.6865,-1.6865,-1.6864,-1.6866,-1.6867,-1.6868,-1.6869,-1.6822,-1.6819,-1.6816,-1.6781,0,0,-1.6808,-1.6807,0,0,0,0,0,0,0,0,-1.6946,-1.6942,-1.6903,-1.6902,-1.6901,-1.6872,-1.6873,-1.6836,-1.6866,-1.6879,-1.6869,-1.687,-1.6837,-1.6833,-1.6823,-1.6778,-1.6776,-1.6808,-1.6806,-1.6805,-1.6804,0,0,0,0,0,0,0,-1.6949,-1.6943,-1.689,-1.6902,-1.6901,-1.69,-1.6896,-1.6866,-1.6853,-1.6878,-1.6878,-1.6874,-1.6836,-1.6825,-1.6822,-1.6776,-1.6808,-1.6805,-1.6804,-1.6802,-1.6696,-1.6695,0,0,0,0,0,0,-1.6953,-1.6945,-1.6891,-1.6889,-1.6927,-1.6898,-1.6893,-1.688,-1.6853,-1.685,-1.6873,-1.6874,-1.683,-1.6825,-1.682,-1.6774,-1.6805,-1.6802,-1.6801,-1.6698,-1.6696,-1.6695,0,0,0,0,0,0,-1.6955,-1.6948,-1.6893,-1.6917,-1.691,-1.6895,-1.6881,-1.6879,-1.6868,-1.685,-1.6847,-1.6865,-1.683,-1.6824,-1.679,-1.6772,-1.6801,-1.6798,-1.6699,-1.6697,-1.6696,-1.6682,0,0,0,0,0,0,-1.6957,-1.6949,-1.6937,-1.6917,-1.6909,-1.6866,-1.688,-1.6878,-1.6864,-1.6865,-1.6841,-1.6838,-1.683,-1.6794,-1.6787,-1.6769,-1.6796,-1.67,-1.6698,-1.6696,-1.6684,-1.668,-1.6677,0,0,0,0,0,-1.696,-1.6934,-1.6936,-1.693,-1.6894,-1.6865,-1.686,-1.6853,-1.6863,-1.6849,-1.6837,-1.6839,-1.6776,-1.6791,-1.6783,-1.6763,-1.6701,-1.6699,-1.6696,-1.6686,-1.6681,-1.6677,0,0,0,0,0,0,-1.6951,-1.6932,-1.6934,-1.6902,-1.6885,-1.6865,-1.6848,-1.6849,-1.6828,-1.6829,-1.6821,-1.6815,-1.678,-1.6769,-1.6786,-1.6726,-1.6739,-1.6735,-1.6734,-1.673,-1.6726,-1.6728,-1.6794,0,0,0,0,0,-1.6946,-1.6926,-1.6909,-1.6882,-1.6874,-1.6863,-1.685,-1.6846,-1.6828,-1.682,-1.6806,-1.6786,-1.6761,-1.6745,-1.6722,-1.6684,-1.6676,-1.6666,-1.6662,-1.6659,-1.6655,-1.663,-1.6624,-1.6686,-1.6686,-1.6686,0,0,-1.6934,-1.6921,-1.6908,-1.688,-1.6867,-1.6844,-1.6856,-1.6832,-1.6814,-1.6816,-1.6783,-1.6771,-1.6749,-1.6712,-1.6694,-1.6701,-1.6636,-1.6656,-1.6654,-1.6651,-1.6627,-1.6621,-1.6616,-1.6685,-1.6685,-1.6685,0,0,-1.69,-1.6889,-1.6865,-1.6851,-1.6831,-1.6824,-1.6818,-1.6798,-1.679,-1.6758,-1.6758,-1.6735,-1.6694,-1.6677,-1.6663,-1.6621,-1.662,-1.6614,-1.6594,-1.657,-1.6565,-1.656,-1.6542,-1.6536,-1.661,-1.661,-1.661,0,-1.6886,-1.6854,-1.6851,-1.6826,-1.6812,-1.6815,-1.6788,-1.6774,-1.6747,-1.6736,-1.6745,-1.6692,-1.6677,-1.6634,-1.6624,-1.6613,-1.6603,-1.6615,-1.6566,-1.6562,-1.6557,-1.654,-1.6533,-1.6609,-1.6609,-1.6609,-1.6609,0,-1.6837,-1.6815,-1.6797,-1.6772,-1.6756,-1.6731,-1.6721,-1.6705,-1.6703,-1.6694,-1.6658,-1.6641,-1.6612,-1.6602,-1.66,-1.6558,-1.6562,-1.6569,-1.6582,-1.6551,-1.6533,-1.6527,-1.6608,-1.6608,-1.6608,-1.6609,0,0,-1.6796,-1.6769,-1.6762,-1.675,-1.6728,-1.6709,-1.6682,-1.6656,-1.6641,-1.6623,-1.6597,-1.6562,-1.6567,-1.6551,-1.6546,-1.6526,-1.6489,-1.6534,-1.6533,-1.6523,-1.6438,-1.6431,-1.6424,-1.649,-1.6489,-1.6488,-1.6439,0,-1.6757,-1.6712,-1.6707,-1.6665,-1.6642,-1.6644,-1.662,-1.6602,-1.6593,-1.657,-1.6558,-1.6532,-1.6543,-1.6533,-1.6513,-1.6498,-1.6472,-1.6502,-1.6463,-1.6462,-1.6465,-1.6415,-1.6408,-1.6363,-1.6433,-1.6432,-1.6431,0,-1.6706,-1.6686,-1.6642,-1.6622,-1.6612,-1.6591,-1.6565,-1.6545,-1.6523,-1.6517,-1.6499,-1.6497,-1.6466,-1.6482,-1.6438,-1.6458,-1.6442,-1.6432,-1.643,-1.6424,-1.6442,-1.6404,-1.6349,-1.634,-1.6421,-1.6422,-1.6422,0,-1.6675,-1.6638,-1.6607,-1.6596,-1.6572,-1.6557,-1.6545,-1.6526,-1.6509,-1.6487,-1.6475,-1.6449,-1.6433,-1.6411,-1.64,-1.6414,-1.6355,-1.6371,-1.6345,-1.6345,-1.633,-1.6331,-1.6268,-1.6326,-1.6326,-1.6326,-1.6326,0,-1.6631,-1.6603,-1.6592,-1.6572,-1.654,-1.6535,-1.6502,-1.6491,-1.6473,-1.6449,-1.6449,-1.6425,-1.6414,-1.6388,-1.638,-1.6341,-1.6335,-1.6327,-1.6324,-1.6325,-1.6325,-1.6312,-1.6313,-1.6324,-1.6325,-1.6325,-1.6325,0,-1.6591,-1.6583,-1.6548,-1.6528,-1.6522,-1.6499,-1.648,-1.6459,-1.645,-1.6419,-1.6411,-1.6396,-1.6365,-1.6353,-1.6315,-1.6309,-1.6264,-1.6266,-1.6271,-1.6269,-1.6243,-1.6244,-1.6166,-1.6154,-1.6223,-1.6223,-1.6222,0,-1.6561,-1.654,-1.6518,-1.6502,-1.6491,-1.6466,-1.645,-1.6443,-1.6426,-1.6399,-1.638,-1.635,-1.6325,-1.6275,-1.6259,-1.6229,-1.6227,-1.6202,-1.6222,-1.6223,-1.6222,-1.6222,-1.6218,-1.6197,-1.6196,-1.6196,-1.6195,0,-1.6508,-1.6505,-1.6483,-1.6458,-1.6439,-1.6419,-1.64,-1.6386,-1.6376,-1.6356,-1.6325,-1.6306,-1.6267,-1.6235,-1.6205,-1.619,-1.6189,-1.619,-1.6181,-1.618,-1.6182,-1.6176,-1.6257,-1.619,-1.6191,-1.6191,-1.6192,-1.6192,-1.647,-1.645,-1.6431,-1.6405,-1.639,-1.6371,-1.635,-1.6338,-1.6313,-1.6282,-1.6279,-1.6245,-1.6222,-1.618,-1.6164,-1.6135,-1.6141,-1.613,-1.6127,-1.6123,-1.6119,-1.619,-1.613,-1.613,-1.613,-1.613,-1.613,0,-1.6414,-1.6402,-1.6378,-1.6351,-1.633,-1.6335,-1.6313,-1.6293,-1.6264,-1.6244,-1.6219,-1.6182,-1.6151,-1.6132,-1.61,-1.608,-1.6078,-1.6071,-1.6071,-1.6066,-1.6118,-1.6126,-1.6073,-1.6073,-1.6073,-1.6073,-1.6073,-1.6073,-1.6382,-1.6347,-1.6342,-1.6298,-1.6286,-1.6254,-1.624,-1.6221,-1.6205,-1.6164,-1.6139,-1.6127,-1.6106,-1.6072,-1.6043,-1.6038,-1.6024,-1.6015,-1.601,-1.6057,-1.6063,-1.6069,-1.6077,-1.6014,-1.6013,-1.5961,-1.596,-1.596]}]]